This is the latest recevied weather packets stored in our database for station/object F4HUO-10. If no packets are shown the sender has not sent any weather packets the latest 10 day(s).
| Time | Temp. | Humidity | Pressure | Rain* | Wind** | Luminosity | Snow |
|---|---|---|---|---|---|---|---|
| 1778119666 | 20.56° C | 49% | 1002.6 hPa | - | - | - | - |
| 1778116064 | 20.56° C | 50% | 1002.4 hPa | - | - | - | - |
| 1778112463 | 20.56° C | 48% | 1002.4 hPa | - | - | - | - |
| 1778108861 | 21.67° C | 48% | 1002.2 hPa | - | - | - | - |
| 1778105268 | 21.11° C | 49% | 1001.9 hPa | - | - | - | - |
| 1778101667 | 21.11° C | 49% | 1001.8 hPa | - | - | - | - |
| 1778098065 | 21.11° C | 49% | 1001.5 hPa | - | - | - | - |
| 1778094464 | 21.11° C | 50% | 1000.7 hPa | - | - | - | - |
| 1778090862 | 21.11° C | 49% | 1000 hPa | - | - | - | - |
| 1778087261 | 21.67° C | 48% | 999.5 hPa | - | - | - | - |
| 1778083667 | 22.22° C | 51% | 999.4 hPa | - | - | - | - |
| 1778080065 | 21.67° C | 51% | 999.4 hPa | - | - | - | - |
| 1778076464 | 21.67° C | 50% | 999.3 hPa | - | - | - | - |
| 1778072862 | 21.67° C | 50% | 999.3 hPa | - | - | - | - |
| 1778069261 | 21.11° C | 51% | 998.8 hPa | - | - | - | - |
| 1778065660 | 21.11° C | 51% | 998.9 hPa | - | - | - | - |
| 1778062066 | 21.67° C | 54% | 998.7 hPa | - | - | - | - |
| 1778058465 | 21.11° C | 54% | 998.6 hPa | - | - | - | - |
| 1778054863 | 21.11° C | 53% | 998.3 hPa | - | - | - | - |
| 1778051262 | 21.11° C | 55% | 997.6 hPa | - | - | - | - |
| 1778047660 | 20.56° C | 54% | 997.1 hPa | - | - | - | - |
| 1778044059 | 20.56° C | 54% | 996.6 hPa | - | - | - | - |
| 1778040466 | 20.56° C | 55% | 996.4 hPa | - | - | - | - |
| 1778036864 | 20.56° C | 55% | 996.3 hPa | - | - | - | - |
| 1778033262 | 20.56° C | 55% | 996.4 hPa | - | - | - | - |
* Rain since midnight (hover to see other rain measurements)
** Current wind speed in m/s (hover to see current wind gust speed)